Location: Blackie
(50.6050°N, 113.6230°W)
Time: 09:09:33
(UTC+00:00)

ISS - Pass Details

Date: 03 December 2021
Orbit: 413 x 422 km, 51.6° (Epoch: 27 January)

Event Time Altitude Azimuth Distance (km) Brightness Sun altitude
Rises 02:04:20 0° 286° (WNW) 2,387 1.2 -23.2°
Reaches altitude 10° 02:06:30 10° 280° (W) 1,517 0.1 -23.5°
Enters shadow 02:09:12 40° 238° (WSW) 639 -2.5 -23.9°
